GTI063 KIAH-KMEM

Flight info

Callsign GTI063
Flight time N/A
Altitude 35000
Route LURIC8 LURIC ELD HOBRK4
Aircraft B748/H-SDE3FGHIM1M2RWXY/LB1

Departure

Time 2025-09-04 21:30
Airport George Bush Intercontinental Airport (KIAH)

Arrival

Time N/A
Airport Memphis International Airport (KMEM)
Time Latitude Longitude Altitude Speed Heading
2025-09-04 20:25 29.97693 -95.34559 109 ft 0 kts 170°
2025-09-04 21:11 29.97722 -95.34564 105 ft 2 kts 169°
2025-09-04 21:11 29.97738 -95.34567 107 ft 2 kts 170°
2025-09-04 21:11 29.97764 -95.34554 106 ft 2 kts 246°
2025-09-04 21:12 29.97765 -95.34539 105 ft 1 kts 258°
2025-09-04 21:12 29.97761 -95.34559 105 ft 0 kts 258°
2025-09-04 21:16 29.97759 -95.34573 106 ft 3 kts 260°
2025-09-04 21:16 29.97755 -95.34611 106 ft 6 kts 264°
2025-09-04 21:16 29.97717 -95.34740 106 ft 9 kts 247°
2025-09-04 21:17 29.97734 -95.34795 105 ft 2 kts 316°
2025-09-04 21:17 29.97752 -95.34808 105 ft 4 kts 328°
2025-09-04 21:18 29.97865 -95.34878 108 ft 9 kts 334°
2025-09-04 21:18 29.97923 -95.34912 106 ft 10 kts 333°
2025-09-04 21:19 29.98067 -95.35000 107 ft 13 kts 331°
2025-09-04 21:19 29.98226 -95.35098 107 ft 13 kts 331°
2025-09-04 21:20 29.98390 -95.35206 107 ft 14 kts 330°
2025-09-04 21:20 29.98565 -95.35315 106 ft 15 kts 332°
2025-09-04 21:21 29.98842 -95.35484 107 ft 16 kts 332°
2025-09-04 21:21 29.98937 -95.35542 107 ft 15 kts 332°
2025-09-04 21:22 29.99056 -95.35615 106 ft 6 kts 325°
2025-09-04 21:22 29.99091 -95.35692 105 ft 5 kts 279°
2025-09-04 21:23 29.99099 -95.35825 107 ft 6 kts 270°
2025-09-04 21:23 29.99097 -95.35870 107 ft 6 kts 265°
2025-09-04 21:24 29.99077 -95.35959 106 ft 6 kts 246°
2025-09-04 21:24 29.99032 -95.36030 105 ft 4 kts 212°
2025-09-04 21:25 29.99004 -95.36033 106 ft 1 kts 177°
2025-09-04 21:26 29.98972 -95.36020 107 ft 3 kts 158°
2025-09-04 21:26 29.98940 -95.36001 107 ft 2 kts 152°
2025-09-04 21:27 29.98920 -95.35989 108 ft 3 kts 151°
2025-09-04 21:27 29.98854 -95.35983 110 ft 7 kts 197°
2025-09-04 21:27 29.98814 -95.36026 107 ft 10 kts 238°
2025-09-04 21:28 29.98696 -95.36087 106 ft 8 kts 156°
2025-09-04 21:28 29.98630 -95.36050 105 ft 42 kts 152°
2025-09-04 21:29 29.95411 -95.34036 762 ft 247 kts 151°
2025-09-04 21:30 29.92061 -95.31811 1689 ft 291 kts 154°
2025-09-04 21:30 29.88405 -95.31785 2602 ft 266 kts 211°
2025-09-04 21:30 29.87071 -95.33224 3068 ft 264 kts 240°
2025-09-04 21:31 29.86841 -95.37319 3875 ft 266 kts 295°
2025-09-04 21:31 29.89631 -95.39837 3921 ft 267 kts 351°
2025-09-04 21:32 29.93260 -95.38996 3909 ft 270 kts 20°
2025-09-04 21:32 29.96730 -95.37364 4264 ft 271 kts 22°
2025-09-04 21:33 30.01852 -95.34598 5397 ft 274 kts 22°
2025-09-04 21:34 30.05378 -95.32977 6138 ft 275 kts 22°
2025-09-04 21:34 30.07084 -95.32022 6492 ft 274 kts 34°
2025-09-04 21:34 30.09594 -95.28737 7201 ft 275 kts 54°
2025-09-04 21:35 30.12987 -95.23379 8288 ft 276 kts 50°
2025-09-04 21:35 30.14247 -95.21704 8661 ft 276 kts 45°
2025-09-04 21:36 30.17312 -95.19052 9414 ft 276 kts 31°
2025-09-04 21:36 30.20523 -95.16574 10098 ft 289 kts 35°
2025-09-04 21:37 30.26226 -95.11986 11184 ft 375 kts 34°
2025-09-04 21:38 30.30744 -95.08361 12000 ft 410 kts 34°
2025-09-04 21:38 30.35518 -95.04529 12783 ft 420 kts 34°